TimeEST,TemperatureF,Dew PointF,Humidity,Sea Level PressureIn,VisibilityMPH,Wind Direction,Wind SpeedMPH,Gust SpeedMPH,PrecipitationIn,Events,Conditions,WindDirDegrees,DateUTC
12:22 AM,32.0,26.6,80,30.20,2.0,NE,6.9,-,0.01,Rain,Light Freezing Rain,50,2014-02-05 05:22:00
12:34 AM,32.0,28.4,87,30.21,2.0,NE,8.1,-,0.01,Rain,Light Freezing Rain,40,2014-02-05 05:34:00
12:49 AM,30.2,28.4,93,30.19,2.0,NNE,10.4,-,0.03,Rain,Light Freezing Rain,30,2014-02-05 05:49:00
12:54 AM,32.0,28.0,85,30.17,2.0,NE,12.7,-,0.03,Rain,Light Freezing Rain,40,2014-02-05 05:54:00
1:12 AM,30.2,28.4,93,30.15,2.0,NE,13.8,-,0.02,Rain,Light Freezing Rain,40,2014-02-05 06:12:00
1:16 AM,30.2,28.4,93,30.15,2.0,NE,13.8,-,0.03,Rain,Light Freezing Rain,40,2014-02-05 06:16:00
1:39 AM,32.0,28.4,87,30.14,2.5,NE,15.0,-,0.08,Rain,Light Freezing Rain,40,2014-02-05 06:39:00
1:50 AM,32.0,28.4,87,30.13,2.0,NE,12.7,-,0.10,Rain,Light Freezing Rain,40,2014-02-05 06:50:00
1:54 AM,32.0,28.0,85,30.13,2.0,NE,17.3,-,0.12,Rain,Light Freezing Rain,40,2014-02-05 06:54:00
2:26 AM,32.0,28.4,87,30.14,2.0,NNE,11.5,-,0.12,Rain,Light Freezing Rain,30,2014-02-05 07:26:00
2:48 AM,33.8,28.4,81,30.14,2.5,NNE,9.2,-,0.21,Rain,Rain,30,2014-02-05 07:48:00
2:54 AM,32.0,28.9,88,30.12,2.5,NE,12.7,-,0.25,Rain,Rain,50,2014-02-05 07:54:00
3:00 AM,32.0,28.4,87,30.11,2.5,NE,16.1,21.9,0.04,Rain,Light Freezing Rain,40,2014-02-05 08:00:00
3:48 AM,32.0,28.4,87,30.04,3.0,NE,11.5,-,0.26,Rain,Light Freezing Rain,50,2014-02-05 08:48:00
3:54 AM,32.0,28.9,88,30.06,3.0,NE,15.0,20.7,0.26,Rain,Light Freezing Rain,50,2014-02-05 08:54:00
4:16 AM,33.8,28.4,81,30.04,3.0,NE,13.8,-,0.03,Rain,Light Freezing Rain,40,2014-02-05 09:16:00
4:52 AM,32.0,28.4,87,29.99,4.0,NE,12.7,24.2,0.06,,Overcast,40,2014-02-05 09:52:00
4:54 AM,32.0,28.9,88,29.98,4.0,NE,13.8,-,0.06,,Overcast,50,2014-02-05 09:54:00
4:59 AM,32.0,28.4,87,29.98,6.0,NE,13.8,20.7,N/A,,Overcast,50,2014-02-05 09:59:00
5:11 AM,33.8,28.4,81,29.96,7.0,NE,17.3,23.0,N/A,,Overcast,50,2014-02-05 10:11:00
5:23 AM,33.8,28.4,81,29.95,6.0,NE,15.0,-,0.00,,Light Drizzle,50,2014-02-05 10:23:00
5:33 AM,33.8,28.4,81,29.95,3.0,NE,12.7,21.9,0.00,,Light Drizzle,50,2014-02-05 10:33:00
5:41 AM,33.8,28.4,81,29.92,2.0,ENE,11.5,19.6,0.00,,Light Drizzle,60,2014-02-05 10:41:00
5:54 AM,33.1,30.0,89,29.94,2.0,North,11.5,19.6,0.00,,Light Drizzle,10,2014-02-05 10:54:00
5:57 AM,33.8,30.2,87,29.94,1.5,NNE,10.4,-,0.01,,Light Drizzle,20,2014-02-05 10:57:00
6:22 AM,33.8,30.2,87,29.96,3.0,North,12.7,21.9,0.07,Rain,Rain,10,2014-02-05 11:22:00
6:26 AM,33.8,30.2,87,29.96,2.0,North,13.8,21.9,0.07,Rain,Light Rain,10,2014-02-05 11:26:00
6:52 AM,33.8,30.2,87,29.98,3.0,North,15.0,-,0.12,Rain,Light Rain,360,2014-02-05 11:52:00
6:54 AM,34.0,30.0,85,29.97,3.0,North,13.8,-,0.12,Rain,Light Rain,10,2014-02-05 11:54:00
7:11 AM,33.8,30.2,87,29.94,2.5,NE,13.8,21.9,0.04,Rain,Heavy Rain,50,2014-02-05 12:11:00
7:24 AM,33.8,30.2,87,29.90,3.0,East,9.2,19.6,0.12,Rain,Rain,90,2014-02-05 12:24:00
7:49 AM,33.8,28.4,81,29.90,4.0,ENE,16.1,23.0,0.17,Rain,Rain,70,2014-02-05 12:49:00
7:54 AM,33.1,28.9,85,29.90,4.0,ENE,10.4,23.0,0.19,Rain,Rain,60,2014-02-05 12:54:00
8:14 AM,33.8,28.4,81,29.88,5.0,ENE,15.0,20.7,0.05,Rain,Light Rain,70,2014-02-05 13:14:00
8:26 AM,33.8,30.2,87,29.88,4.0,ENE,12.7,20.7,0.06,Rain,Light Rain,70,2014-02-05 13:26:00
8:28 AM,33.8,30.2,87,29.88,3.0,ENE,11.5,20.7,0.07,Rain,Rain,60,2014-02-05 13:28:00
8:50 AM,33.8,30.2,87,29.84,5.0,East,10.4,19.6,0.09,Rain,Light Rain,80,2014-02-05 13:50:00
8:54 AM,33.1,30.0,89,29.84,6.0,East,11.5,-,0.09,Rain,Light Rain,80,2014-02-05 13:54:00
9:21 AM,33.8,30.2,87,29.81,8.0,Variable,3.5,-,0.02,Rain,Light Rain,0,2014-02-05 14:21:00
9:28 AM,33.8,30.2,87,29.81,5.0,ENE,12.7,-,0.02,Rain,Light Rain,70,2014-02-05 14:28:00
9:32 AM,33.8,30.2,87,29.81,4.0,ENE,12.7,19.6,0.02,Rain,Light Rain,70,2014-02-05 14:32:00
9:54 AM,34.0,30.0,85,29.79,3.0,ENE,8.1,-,0.04,Rain,Light Rain,60,2014-02-05 14:54:00
9:57 AM,33.8,30.2,87,29.79,2.0,ENE,8.1,-,0.00,Rain,Rain,70,2014-02-05 14:57:00
10:34 AM,33.8,30.2,87,29.76,1.5,East,9.2,-,0.06,Rain,Rain,80,2014-02-05 15:34:00
10:49 AM,33.8,30.2,87,29.74,2.0,ENE,6.9,-,0.13,Rain,Rain,70,2014-02-05 15:49:00
10:52 AM,33.8,30.2,87,29.74,3.0,ENE,5.8,-,0.13,Rain,Light Rain,70,2014-02-05 15:52:00
10:54 AM,33.1,30.9,92,29.74,3.0,ENE,6.9,-,0.13,Rain,Light Rain,70,2014-02-05 15:54:00
11:14 AM,33.8,30.2,87,29.74,2.0,ENE,3.5,-,0.03,Rain,Heavy Rain,70,2014-02-05 16:14:00
11:42 AM,33.8,30.2,87,29.72,1.8,ENE,4.6,-,0.09,Rain,Light Rain,70,2014-02-05 16:42:00
11:54 AM,34.0,30.9,89,29.72,1.2,NE,4.6,-,0.11,Rain,Light Rain,40,2014-02-05 16:54:00
12:00 PM,33.8,30.2,87,29.72,2.0,NNE,4.6,-,0.00,Rain,Light Rain,30,2014-02-05 17:00:00
12:54 PM,35.1,30.9,85,29.71,2.5,NNW,3.5,-,0.02,Rain,Light Rain,340,2014-02-05 17:54:00
1:06 PM,35.6,30.2,81,29.72,3.0,NNW,4.6,-,0.00,,Light Drizzle,330,2014-02-05 18:06:00
1:45 PM,35.6,32.0,87,29.69,5.0,NNW,3.5,-,0.01,,Overcast,340,2014-02-05 18:45:00
1:54 PM,35.1,32.0,89,29.69,5.0,NNW,4.6,-,0.01,,Overcast,330,2014-02-05 18:54:00
2:49 PM,35.6,32.0,87,29.68,5.0,Calm,Calm,-,N/A,,Overcast,0,2014-02-05 19:49:00
2:54 PM,35.1,32.0,89,29.69,5.0,SW,4.6,-,N/A,,Overcast,230,2014-02-05 19:54:00
3:54 PM,35.1,30.9,85,29.71,6.0,WSW,12.7,-,N/A,,Overcast,250,2014-02-05 20:54:00
4:54 PM,35.1,30.9,85,29.72,5.0,WSW,8.1,-,N/A,,Overcast,250,2014-02-05 21:54:00
5:47 PM,35.6,30.2,81,29.75,6.0,West,10.4,-,N/A,,Mostly Cloudy,260,2014-02-05 22:47:00
5:54 PM,35.1,30.9,85,29.75,6.0,WSW,9.2,-,N/A,,Mostly Cloudy,250,2014-02-05 22:54:00
6:02 PM,35.6,30.2,81,29.76,7.0,WSW,9.2,-,N/A,,Mostly Cloudy,250,2014-02-05 23:02:00
6:23 PM,35.6,30.2,81,29.78,7.0,WSW,12.7,-,N/A,,Mostly Cloudy,250,2014-02-05 23:23:00
6:54 PM,36.0,32.0,86,29.81,7.0,West,9.2,-,N/A,,Overcast,280,2014-02-05 23:54:00
7:54 PM,36.0,30.9,82,29.84,7.0,West,8.1,-,N/A,,Overcast,260,2014-02-06 00:54:00
8:54 PM,37.9,30.9,76,29.88,8.0,WNW,12.7,-,N/A,,Overcast,290,2014-02-06 01:54:00
9:23 PM,37.4,28.4,70,29.90,10.0,WNW,16.1,24.2,N/A,,Mostly Cloudy,300,2014-02-06 02:23:00
9:54 PM,37.0,28.0,70,29.93,10.0,WNW,18.4,27.6,N/A,,Overcast,300,2014-02-06 02:54:00
10:54 PM,35.1,21.9,59,29.98,10.0,WNW,18.4,28.8,N/A,,Mostly Cloudy,300,2014-02-06 03:54:00
11:54 PM,32.0,19.9,61,30.03,10.0,NW,17.3,-,N/A,,Mostly Cloudy,320,2014-02-06 04:54:00